Time,TemperatureF,DewpointF,PressureIn,WindDirection,WindDirectionDegrees,WindSpeedMPH,WindSpeedGustMPH,Humidity,HourlyPrecipIn,Conditions,Clouds,dailyrainin,SoftwareType,DateUTC
2013-10-09 00:04:00,53.5,20.3,29.69,South,173,3.0,5.0,27,0.00,,,0.00,Wunderground PWS Mod,2013-10-09 06:04:00,
2013-10-09 00:10:00,52.9,20.6,29.69,SSE,151,2.0,3.0,28,0.00,,,0.00,Wunderground PWS Mod,2013-10-09 06:10:00,
2013-10-09 00:15:00,52.5,20.3,29.69,SSE,167,3.0,3.0,28,0.00,,,0.00,Wunderground PWS Mod,2013-10-09 06:15:00,
2013-10-09 00:20:00,52.5,21.1,29.70,South,171,5.0,5.0,29,0.00,,,0.00,Wunderground PWS Mod,2013-10-09 06:20:00,
2013-10-09 00:25:00,52.3,20.1,29.70,South,190,2.0,3.0,28,0.00,,,0.00,Wunderground PWS Mod,2013-10-09 06:25:00,
2013-10-09 00:31:00,52.3,20.1,29.70,SSE,151,2.0,5.0,28,0.00,,,0.00,Wunderground PWS Mod,2013-10-09 06:31:00,
2013-10-09 00:37:00,52.2,20.9,29.70,South,182,5.0,7.0,29,0.00,,,0.00,Wunderground PWS Mod,2013-10-09 06:37:00,
2013-10-09 00:43:00,52.2,20.0,29.70,South,180,4.0,6.0,28,0.00,,,0.00,Wunderground PWS Mod,2013-10-09 06:43:00,
2013-10-09 00:49:00,51.7,20.4,29.70,SSE,158,3.0,4.0,29,0.00,,,0.00,Wunderground PWS Mod,2013-10-09 06:49:00,
2013-10-09 00:55:00,51.4,21.0,29.70,South,169,3.0,4.0,30,0.00,,,0.00,Wunderground PWS Mod,2013-10-09 06:55:00,
2013-10-09 01:01:00,51.0,20.6,29.72,SSE,161,2.0,5.0,30,0.00,,,0.00,Wunderground PWS Mod,2013-10-09 07:01:00,
2013-10-09 01:06:00,50.7,21.1,29.72,South,179,5.0,5.0,31,0.00,,,0.00,Wunderground PWS Mod,2013-10-09 07:06:00,
2013-10-09 01:12:00,50.5,20.9,29.72,South,186,4.0,4.0,31,0.00,,,0.00,Wunderground PWS Mod,2013-10-09 07:12:00,
2013-10-09 01:17:00,50.4,20.9,29.70,SSE,164,3.0,4.0,31,0.00,,,0.00,Wunderground PWS Mod,2013-10-09 07:17:00,
2013-10-09 01:22:00,50.2,20.7,29.70,SSE,155,1.0,3.0,31,0.00,,,0.00,Wunderground PWS Mod,2013-10-09 07:22:00,
2013-10-09 01:27:00,49.8,21.1,29.70,SSE,155,1.0,3.0,32,0.00,,,0.00,Wunderground PWS Mod,2013-10-09 07:27:00,
2013-10-09 01:34:00,49.8,21.1,29.70,South,180,3.0,4.0,32,0.00,,,0.00,Wunderground PWS Mod,2013-10-09 07:34:00,
2013-10-09 01:40:00,49.5,20.8,29.70,South,177,4.0,4.0,32,0.00,,,0.00,Wunderground PWS Mod,2013-10-09 07:40:00,
2013-10-09 01:45:00,49.4,20.7,29.70,South,191,4.0,4.0,32,0.00,,,0.00,Wunderground PWS Mod,2013-10-09 07:45:00,
2013-10-09 01:50:00,49.2,21.3,29.72,South,179,2.0,3.0,33,0.00,,,0.00,Wunderground PWS Mod,2013-10-09 07:50:00,
2013-10-09 01:55:00,48.8,21.6,29.72,South,184,1.0,3.0,34,0.00,,,0.00,Wunderground PWS Mod,2013-10-09 07:55:00,
2013-10-09 02:01:00,48.0,22.3,29.72,South,181,3.0,3.0,36,0.00,,,0.00,Wunderground PWS Mod,2013-10-09 08:01:00,
2013-10-09 02:06:00,47.6,21.9,29.72,SSE,165,2.0,4.0,36,0.00,,,0.00,Wunderground PWS Mod,2013-10-09 08:06:00,
2013-10-09 02:11:00,47.6,21.9,29.72,SSE,167,2.0,4.0,36,0.00,,,0.00,Wunderground PWS Mod,2013-10-09 08:11:00,
2013-10-09 02:16:00,47.9,22.2,29.72,SSW,203,3.0,5.0,36,0.00,,,0.00,Wunderground PWS Mod,2013-10-09 08:16:00,
2013-10-09 02:21:00,48.0,22.3,29.72,SSE,157,3.0,5.0,36,0.00,,,0.00,Wunderground PWS Mod,2013-10-09 08:21:00,
2013-10-09 02:26:00,48.8,21.6,29.72,South,188,4.0,5.0,34,0.00,,,0.00,Wunderground PWS Mod,2013-10-09 08:26:00,
2013-10-09 02:31:00,49.9,21.2,29.71,SSE,161,3.0,6.0,32,0.00,,,0.00,Wunderground PWS Mod,2013-10-09 08:31:00,
2013-10-09 02:36:00,49.9,21.9,29.71,South,186,0.0,3.0,33,0.00,,,0.00,Wunderground PWS Mod,2013-10-09 08:36:00,
2013-10-09 02:41:00,49.5,21.5,29.71,SE,144,3.0,7.0,33,0.00,,,0.00,Wunderground PWS Mod,2013-10-09 08:41:00,
2013-10-09 02:46:00,49.6,21.6,29.71,SSW,198,3.0,6.0,33,0.00,,,0.00,Wunderground PWS Mod,2013-10-09 08:46:00,
2013-10-09 02:51:00,49.6,21.6,29.71,SSE,167,3.0,5.0,33,0.00,,,0.00,Wunderground PWS Mod,2013-10-09 08:51:00,
2013-10-09 02:56:00,49.8,21.8,29.71,SSE,150,2.0,4.0,33,0.00,,,0.00,Wunderground PWS Mod,2013-10-09 08:56:00,
2013-10-09 03:01:00,49.6,21.6,29.70,SSE,163,2.0,4.0,33,0.00,,,0.00,Wunderground PWS Mod,2013-10-09 09:01:00,
2013-10-09 03:06:00,49.4,21.5,29.70,SSE,159,4.0,6.0,33,0.00,,,0.00,Wunderground PWS Mod,2013-10-09 09:06:00,
2013-10-09 03:11:00,49.1,21.9,29.70,SE,146,4.0,5.0,34,0.00,,,0.00,Wunderground PWS Mod,2013-10-09 09:11:00,
2013-10-09 03:16:00,48.6,22.1,29.70,SSE,164,2.0,4.0,35,0.00,,,0.00,Wunderground PWS Mod,2013-10-09 09:16:00,
2013-10-09 03:21:00,47.9,22.2,29.70,SE,138,2.0,3.0,36,0.00,,,0.00,Wunderground PWS Mod,2013-10-09 09:21:00,
2013-10-09 03:26:00,47.3,21.7,29.70,South,172,1.0,5.0,36,0.00,,,0.00,Wunderground PWS Mod,2013-10-09 09:26:00,
2013-10-09 03:31:00,47.0,22.0,29.72,SSE,150,2.0,3.0,37,0.00,,,0.00,Wunderground PWS Mod,2013-10-09 09:31:00,
2013-10-09 03:36:00,46.8,21.9,29.72,SSE,156,2.0,3.0,37,0.00,,,0.00,Wunderground PWS Mod,2013-10-09 09:36:00,
2013-10-09 03:41:00,47.0,22.0,29.72,SSE,156,2.0,5.0,37,0.00,,,0.00,Wunderground PWS Mod,2013-10-09 09:41:00,
2013-10-09 03:46:00,47.1,22.1,29.70,SE,128,3.0,3.0,37,0.00,,,0.00,Wunderground PWS Mod,2013-10-09 09:46:00,
2013-10-09 03:51:00,47.6,21.9,29.70,SSE,153,2.0,5.0,36,0.00,,,0.00,Wunderground PWS Mod,2013-10-09 09:51:00,
2013-10-09 03:56:00,47.9,22.2,29.70,SE,141,2.0,5.0,36,0.00,,,0.00,Wunderground PWS Mod,2013-10-09 09:56:00,
2013-10-09 04:01:00,48.0,21.6,29.70,SSE,160,1.0,2.0,35,0.00,,,0.00,Wunderground PWS Mod,2013-10-09 10:01:00,
2013-10-09 04:04:00,48.0,22.3,29.70,SSE,158,2.0,2.0,36,0.00,,,0.00,Wunderground PWS Mod,2013-10-09 10:04:00,
2013-10-09 04:06:00,48.0,22.3,29.70,SSE,157,1.0,4.0,36,0.00,,,0.00,Wunderground PWS Mod,2013-10-09 10:06:00,
2013-10-09 04:11:00,48.0,22.3,29.70,SSE,152,2.0,3.0,36,0.00,,,0.00,Wunderground PWS Mod,2013-10-09 10:11:00,
2013-10-09 04:16:00,47.9,22.2,29.72,SSE,147,2.0,3.0,36,0.00,,,0.00,Wunderground PWS Mod,2013-10-09 10:16:00,
2013-10-09 04:21:00,47.9,22.2,29.72,SE,146,2.0,2.0,36,0.00,,,0.00,Wunderground PWS Mod,2013-10-09 10:21:00,
2013-10-09 04:26:00,47.7,22.0,29.72,ESE,123,2.0,4.0,36,0.00,,,0.00,Wunderground PWS Mod,2013-10-09 10:26:00,
2013-10-09 04:31:00,47.9,22.2,29.72,SSE,148,4.0,4.0,36,0.00,,,0.00,Wunderground PWS Mod,2013-10-09 10:31:00,
2013-10-09 04:36:00,48.6,21.5,29.72,SSE,156,3.0,4.0,34,0.00,,,0.00,Wunderground PWS Mod,2013-10-09 10:36:00,
2013-10-09 04:41:00,48.9,21.7,29.72,SE,129,3.0,9.0,34,0.00,,,0.00,Wunderground PWS Mod,2013-10-09 10:41:00,
2013-10-09 04:46:00,48.8,21.6,29.70,SSE,165,3.0,6.0,34,0.00,,,0.00,Wunderground PWS Mod,2013-10-09 10:46:00,
2013-10-09 04:51:00,49.1,21.9,29.70,SE,143,2.0,6.0,34,0.00,,,0.00,Wunderground PWS Mod,2013-10-09 10:51:00,
2013-10-09 04:56:00,49.1,21.9,29.70,SSE,159,1.0,4.0,34,0.00,,,0.00,Wunderground PWS Mod,2013-10-09 10:56:00,
2013-10-09 05:01:00,48.8,21.6,29.70,SSE,150,1.0,3.0,34,0.00,,,0.00,Wunderground PWS Mod,2013-10-09 11:01:00,
2013-10-09 05:06:00,48.6,21.5,29.70,SE,144,2.0,3.0,34,0.00,,,0.00,Wunderground PWS Mod,2013-10-09 11:06:00,
2013-10-09 05:11:00,48.6,21.5,29.70,SE,145,1.0,2.0,34,0.00,,,0.00,Wunderground PWS Mod,2013-10-09 11:11:00,
2013-10-09 05:16:00,48.5,22.1,29.71,SE,139,1.0,2.0,35,0.00,,,0.00,Wunderground PWS Mod,2013-10-09 11:16:00,
2013-10-09 05:21:00,48.2,21.8,29.71,SE,142,2.0,2.0,35,0.00,,,0.00,Wunderground PWS Mod,2013-10-09 11:21:00,
2013-10-09 05:26:00,48.2,22.5,29.71,SE,143,2.0,3.0,36,0.00,,,0.00,Wunderground PWS Mod,2013-10-09 11:26:00,
2013-10-09 05:31:00,48.0,22.3,29.71,SE,146,2.0,3.0,36,0.00,,,0.00,Wunderground PWS Mod,2013-10-09 11:31:00,
2013-10-09 05:36:00,48.0,22.9,29.71,SE,143,2.0,4.0,37,0.00,,,0.00,Wunderground PWS Mod,2013-10-09 11:36:00,
2013-10-09 05:41:00,48.0,22.9,29.71,SSE,165,2.0,3.0,37,0.00,,,0.00,Wunderground PWS Mod,2013-10-09 11:41:00,
2013-10-09 05:46:00,47.9,22.8,29.71,SE,144,2.0,4.0,37,0.00,,,0.00,Wunderground PWS Mod,2013-10-09 11:46:00,
2013-10-09 05:51:00,47.9,22.8,29.71,SSE,148,2.0,3.0,37,0.00,,,0.00,Wunderground PWS Mod,2013-10-09 11:51:00,
2013-10-09 05:56:00,47.7,23.3,29.71,SSE,159,1.0,3.0,38,0.00,,,0.00,Wunderground PWS Mod,2013-10-09 11:56:00,
2013-10-09 06:01:00,47.6,23.2,29.71,SE,141,2.0,3.0,38,0.00,,,0.00,Wunderground PWS Mod,2013-10-09 12:01:00,
2013-10-09 06:04:00,47.6,23.2,29.71,SSE,157,1.0,3.0,38,0.00,,,0.00,Wunderground PWS Mod,2013-10-09 12:04:00,
2013-10-09 06:09:00,47.4,23.0,29.71,SSE,154,2.0,2.0,38,0.00,,,0.00,Wunderground PWS Mod,2013-10-09 12:09:00,
2013-10-09 06:14:00,47.3,22.9,29.71,SSE,160,1.0,2.0,38,0.00,,,0.00,Wunderground PWS Mod,2013-10-09 12:14:00,
2013-10-09 06:19:00,47.3,22.9,29.77,SSE,160,1.0,3.0,38,0.00,,,0.00,Wunderground PWS Mod,2013-10-09 12:19:00,
2013-10-09 06:24:00,47.3,22.9,29.77,SSE,159,1.0,2.0,38,0.00,,,0.00,Wunderground PWS Mod,2013-10-09 12:24:00,
2013-10-09 06:29:00,47.3,22.9,29.77,SSE,157,2.0,2.0,38,0.00,,,0.00,Wunderground PWS Mod,2013-10-09 12:29:00,
2013-10-09 06:34:00,47.4,23.0,29.77,SSE,150,2.0,3.0,38,0.00,,,0.00,Wunderground PWS Mod,2013-10-09 12:34:00,
2013-10-09 06:39:00,47.4,23.0,29.77,SSE,152,2.0,3.0,38,0.00,,,0.00,Wunderground PWS Mod,2013-10-09 12:39:00,
2013-10-09 06:44:00,47.4,23.0,29.77,SSE,165,2.0,2.0,38,0.00,,,0.00,Wunderground PWS Mod,2013-10-09 12:44:00,
2013-10-09 06:49:00,47.6,23.2,29.77,SSE,156,2.0,4.0,38,0.00,,,0.00,Wunderground PWS Mod,2013-10-09 12:49:00,
2013-10-09 06:55:00,47.6,23.2,29.77,SE,135,2.0,3.0,38,0.00,,,0.00,Wunderground PWS Mod,2013-10-09 12:55:00,
2013-10-09 07:00:00,47.9,22.8,29.77,SE,143,2.0,3.0,37,0.00,,,0.00,Wunderground PWS Mod,2013-10-09 13:00:00,
2013-10-09 07:05:00,48.0,22.9,29.77,SE,134,2.0,2.0,37,0.00,,,0.00,Wunderground PWS Mod,2013-10-09 13:05:00,
2013-10-09 07:10:00,48.3,22.5,29.77,SE,135,3.0,3.0,36,0.00,,,0.00,Wunderground PWS Mod,2013-10-09 13:10:00,
2013-10-09 07:15:00,48.6,22.8,29.77,SE,136,2.0,3.0,36,0.00,,,0.00,Wunderground PWS Mod,2013-10-09 13:15:00,
2013-10-09 07:20:00,48.6,22.8,29.77,SE,143,1.0,2.0,36,0.00,,,0.00,Wunderground PWS Mod,2013-10-09 13:20:00,
2013-10-09 07:25:00,48.5,23.4,29.77,SE,140,2.0,3.0,37,0.00,,,0.00,Wunderground PWS Mod,2013-10-09 13:25:00,
2013-10-09 07:30:00,48.3,22.5,29.77,SSE,152,2.0,4.0,36,0.00,,,0.00,Wunderground PWS Mod,2013-10-09 13:30:00,
2013-10-09 07:35:00,48.3,23.2,29.77,SE,141,3.0,3.0,37,0.00,,,0.00,Wunderground PWS Mod,2013-10-09 13:35:00,
2013-10-09 07:40:00,48.2,23.1,29.77,SE,136,1.0,2.0,37,0.00,,,0.00,Wunderground PWS Mod,2013-10-09 13:40:00,
2013-10-09 07:45:00,48.2,23.1,29.77,SSE,152,2.0,2.0,37,0.00,,,0.00,Wunderground PWS Mod,2013-10-09 13:45:00,
2013-10-09 07:50:00,48.3,23.2,29.79,SSE,148,3.0,3.0,37,0.00,,,0.00,Wunderground PWS Mod,2013-10-09 13:50:00,
2013-10-09 07:55:00,48.3,23.2,29.79,SE,138,2.0,3.0,37,0.00,,,0.00,Wunderground PWS Mod,2013-10-09 13:55:00,
2013-10-09 08:00:00,48.2,23.7,29.79,SE,146,3.0,3.0,38,0.00,,,0.00,Wunderground PWS Mod,2013-10-09 14:00:00,
2013-10-09 08:05:00,47.9,23.5,29.79,SE,126,2.0,2.0,38,0.00,,,0.00,Wunderground PWS Mod,2013-10-09 14:05:00,
2013-10-09 08:10:00,47.9,23.5,29.79,SE,136,2.0,2.0,38,0.00,,,0.00,Wunderground PWS Mod,2013-10-09 14:10:00,
2013-10-09 08:15:00,47.9,24.1,29.79,SE,139,2.0,3.0,39,0.00,,,0.00,Wunderground PWS Mod,2013-10-09 14:15:00,
2013-10-09 08:20:00,48.0,24.2,29.80,SE,139,2.0,2.0,39,0.00,,,0.00,Wunderground PWS Mod,2013-10-09 14:20:00,
2013-10-09 08:25:00,48.6,24.7,29.80,SE,134,2.0,3.0,39,0.00,,,0.00,Wunderground PWS Mod,2013-10-09 14:25:00,
2013-10-09 08:30:00,49.8,24.5,29.80,ESE,122,3.0,3.0,37,0.00,,,0.00,Wunderground PWS Mod,2013-10-09 14:30:00,
2013-10-09 08:35:00,51.1,25.0,29.79,SSE,148,2.0,4.0,36,0.00,,,0.00,Wunderground PWS Mod,2013-10-09 14:35:00,
2013-10-09 08:40:00,52.2,25.3,29.79,SE,136,3.0,3.0,35,0.00,,,0.00,Wunderground PWS Mod,2013-10-09 14:40:00,
2013-10-09 08:45:00,52.3,25.4,29.79,SE,136,2.0,3.0,35,0.00,,,0.00,Wunderground PWS Mod,2013-10-09 14:45:00,
2013-10-09 08:50:00,52.2,25.3,29.77,SE,145,3.0,4.0,35,0.00,,,0.00,Wunderground PWS Mod,2013-10-09 14:50:00,
2013-10-09 08:55:00,51.9,25.8,29.77,SSE,151,4.0,4.0,36,0.00,,,0.00,Wunderground PWS Mod,2013-10-09 14:55:00,
2013-10-09 09:00:00,51.6,26.1,29.77,SSE,156,2.0,3.0,37,0.00,,,0.00,Wunderground PWS Mod,2013-10-09 15:00:00,
2013-10-09 09:05:00,51.4,25.3,29.79,SE,135,2.0,4.0,36,0.00,,,0.00,Wunderground PWS Mod,2013-10-09 15:05:00,
2013-10-09 09:10:00,51.6,25.5,29.79,SSE,148,2.0,3.0,36,0.00,,,0.00,Wunderground PWS Mod,2013-10-09 15:10:00,
2013-10-09 09:15:00,51.6,25.5,29.79,SE,133,2.0,4.0,36,0.00,,,0.00,Wunderground PWS Mod,2013-10-09 15:15:00,
2013-10-09 09:20:00,51.6,25.5,29.80,SE,146,4.0,4.0,36,0.00,,,0.00,Wunderground PWS Mod,2013-10-09 15:20:00,
2013-10-09 09:25:00,51.6,26.1,29.80,SSE,166,2.0,4.0,37,0.00,,,0.00,Wunderground PWS Mod,2013-10-09 15:25:00,
2013-10-09 09:30:00,51.9,26.4,29.80,East,86,7.0,7.0,37,0.00,,,0.00,Wunderground PWS Mod,2013-10-09 15:30:00,
2013-10-09 09:35:00,52.2,26.7,29.80,SE,136,3.0,3.0,37,0.00,,,0.00,Wunderground PWS Mod,2013-10-09 15:35:00,
2013-10-09 09:40:00,52.5,26.9,29.80,SSE,167,7.0,7.0,37,0.00,,,0.00,Wunderground PWS Mod,2013-10-09 15:40:00,
2013-10-09 09:45:00,53.1,27.5,29.80,ESE,119,8.0,9.0,37,0.00,,,0.00,Wunderground PWS Mod,2013-10-09 15:45:00,
2013-10-09 09:50:00,53.3,27.0,29.81,ESE,122,6.0,6.0,36,0.00,,,0.00,Wunderground PWS Mod,2013-10-09 15:50:00,
2013-10-09 09:55:00,53.6,25.9,29.81,SSE,147,3.0,7.0,34,0.00,,,0.00,Wunderground PWS Mod,2013-10-09 15:55:00,
2013-10-09 10:00:00,53.5,25.8,29.81,SE,146,6.0,9.0,34,0.00,,,0.00,Wunderground PWS Mod,2013-10-09 16:00:00,
2013-10-09 10:05:00,53.8,26.8,29.79,South,179,7.0,9.0,35,0.00,,,0.00,Wunderground PWS Mod,2013-10-09 16:05:00,
2013-10-09 10:10:00,54.2,26.4,29.79,SSW,203,15.0,15.0,34,0.00,,,0.00,Wunderground PWS Mod,2013-10-09 16:10:00,
2013-10-09 10:15:00,54.5,26.0,29.79,SSE,153,9.0,11.0,33,0.00,,,0.00,Wunderground PWS Mod,2013-10-09 16:15:00,
2013-10-09 10:20:00,55.1,25.7,29.81,SE,143,7.0,9.0,32,0.00,,,0.00,Wunderground PWS Mod,2013-10-09 16:20:00,
2013-10-09 10:25:00,55.9,24.9,29.81,SSE,160,2.0,12.0,30,0.00,,,0.00,Wunderground PWS Mod,2013-10-09 16:25:00,
2013-10-09 10:30:00,56.3,25.2,29.81,ESE,121,5.0,6.0,30,0.00,,,0.00,Wunderground PWS Mod,2013-10-09 16:30:00,
2013-10-09 10:35:00,56.6,25.5,29.81,SSE,162,6.0,17.0,30,0.00,,,0.00,Wunderground PWS Mod,2013-10-09 16:35:00,
2013-10-09 10:40:00,56.6,25.5,29.81,SE,143,7.0,15.0,30,0.00,,,0.00,Wunderground PWS Mod,2013-10-09 16:40:00,
2013-10-09 10:45:00,56.2,24.3,29.81,SSE,162,10.0,11.0,29,0.00,,,0.00,Wunderground PWS Mod,2013-10-09 16:45:00,
2013-10-09 10:50:00,55.9,24.9,29.81,SSE,165,8.0,17.0,30,0.00,,,0.00,Wunderground PWS Mod,2013-10-09 16:50:00,
2013-10-09 10:56:00,56.2,25.1,29.81,SSE,155,7.0,8.0,30,0.00,,,0.00,Wunderground PWS Mod,2013-10-09 16:56:00,
2013-10-09 11:00:00,56.7,25.6,29.81,South,179,5.0,9.0,30,0.00,,,0.00,Wunderground PWS Mod,2013-10-09 17:00:00,
2013-10-09 11:05:00,57.0,25.0,29.81,SSE,161,7.0,11.0,29,0.00,,,0.00,Wunderground PWS Mod,2013-10-09 17:05:00,
2013-10-09 11:10:00,56.6,24.7,29.81,SE,143,4.0,10.0,29,0.00,,,0.00,Wunderground PWS Mod,2013-10-09 17:10:00,
2013-10-09 11:15:00,57.0,24.2,29.81,SSW,201,9.0,11.0,28,0.00,,,0.00,Wunderground PWS Mod,2013-10-09 17:15:00,
2013-10-09 11:20:00,58.0,25.9,29.78,South,180,3.0,8.0,29,0.00,,,0.00,Wunderground PWS Mod,2013-10-09 17:20:00,
2013-10-09 11:25:00,58.6,25.6,29.78,South,171,7.0,11.0,28,0.00,,,0.00,Wunderground PWS Mod,2013-10-09 17:25:00,
2013-10-09 11:30:00,58.7,25.6,29.78,South,176,13.0,15.0,28,0.00,,,0.00,Wunderground PWS Mod,2013-10-09 17:30:00,
2013-10-09 11:36:00,58.7,24.8,29.78,SSE,158,8.0,15.0,27,0.00,,,0.00,Wunderground PWS Mod,2013-10-09 17:36:00,
2013-10-09 11:41:00,57.8,24.9,29.77,SSE,164,4.0,13.0,28,0.00,,,0.00,Wunderground PWS Mod,2013-10-09 17:41:00,
2013-10-09 11:46:00,57.5,24.6,29.77,South,191,7.0,12.0,28,0.00,,,0.00,Wunderground PWS Mod,2013-10-09 17:46:00,
2013-10-09 11:51:00,58.1,25.1,29.77,SSW,207,11.0,12.0,28,0.00,,,0.00,Wunderground PWS Mod,2013-10-09 17:51:00,
2013-10-09 11:56:00,58.3,24.4,29.77,SSE,165,6.0,11.0,27,0.00,,,0.00,Wunderground PWS Mod,2013-10-09 17:56:00,
2013-10-09 12:01:00,58.9,25.8,29.76,SSE,158,12.0,12.0,28,0.00,,,0.00,Wunderground PWS Mod,2013-10-09 18:01:00,
2013-10-09 12:06:00,59.3,26.2,29.76,SSE,152,3.0,11.0,28,0.00,,,0.00,Wunderground PWS Mod,2013-10-09 18:06:00,
2013-10-09 12:11:00,58.7,25.6,29.76,SE,136,5.0,13.0,28,0.00,,,0.00,Wunderground PWS Mod,2013-10-09 18:11:00,
2013-10-09 12:16:00,58.1,25.1,29.78,SSE,156,8.0,13.0,28,0.00,,,0.00,Wunderground PWS Mod,2013-10-09 18:16:00,
2013-10-09 12:21:00,57.5,24.6,29.78,SE,137,7.0,17.0,28,0.00,,,0.00,Wunderground PWS Mod,2013-10-09 18:21:00,
2013-10-09 12:26:00,56.9,24.1,29.78,ESE,115,6.0,12.0,28,0.00,,,0.00,Wunderground PWS Mod,2013-10-09 18:26:00,
2013-10-09 12:31:00,56.7,24.8,29.78,South,176,3.0,12.0,29,0.00,,,0.00,Wunderground PWS Mod,2013-10-09 18:31:00,
2013-10-09 12:36:00,57.2,25.2,29.78,ESE,105,7.0,9.0,29,0.00,,,0.00,Wunderground PWS Mod,2013-10-09 18:36:00,
2013-10-09 12:41:00,56.9,24.1,29.78,SE,134,12.0,13.0,28,0.00,,,0.00,Wunderground PWS Mod,2013-10-09 18:41:00,
2013-10-09 12:46:00,56.9,23.2,29.78,SE,130,5.0,11.0,27,0.00,,,0.00,Wunderground PWS Mod,2013-10-09 18:46:00,
2013-10-09 12:51:00,56.9,23.2,29.78,South,171,7.0,12.0,27,0.00,,,0.00,Wunderground PWS Mod,2013-10-09 18:51:00,
2013-10-09 12:56:00,57.2,24.3,29.78,South,191,8.0,12.0,28,0.00,,,0.00,Wunderground PWS Mod,2013-10-09 18:56:00,
2013-10-09 13:01:00,58.0,24.2,29.76,SSW,193,6.0,12.0,27,0.00,,,0.00,Wunderground PWS Mod,2013-10-09 19:01:00,
2013-10-09 13:06:00,58.6,23.8,29.76,South,177,12.0,12.0,26,0.00,,,0.00,Wunderground PWS Mod,2013-10-09 19:06:00,
2013-10-09 13:09:00,59.3,23.4,29.76,SSE,158,10.0,16.0,25,0.00,,,0.00,Wunderground PWS Mod,2013-10-09 19:09:00,
2013-10-09 13:11:00,59.5,23.6,29.76,SSE,154,7.0,17.0,25,0.00,,,0.00,Wunderground PWS Mod,2013-10-09 19:11:00,
2013-10-09 13:16:00,60.2,23.2,29.76,SSE,155,11.0,15.0,24,0.00,,,0.00,Wunderground PWS Mod,2013-10-09 19:16:00,
2013-10-09 13:21:00,60.2,22.2,29.76,SE,140,11.0,18.0,23,0.00,,,0.00,Wunderground PWS Mod,2013-10-09 19:21:00,
2013-10-09 13:26:00,60.2,22.2,29.76,SSE,160,11.0,16.0,23,0.00,,,0.00,Wunderground PWS Mod,2013-10-09 19:26:00,
2013-10-09 13:31:00,59.9,20.9,29.75,SE,134,9.0,14.0,22,0.00,,,0.00,Wunderground PWS Mod,2013-10-09 19:31:00,
2013-10-09 13:36:00,60.2,22.2,29.75,SE,139,17.0,17.0,23,0.00,,,0.00,Wunderground PWS Mod,2013-10-09 19:36:00,
2013-10-09 13:41:00,60.4,22.4,29.75,SSE,168,10.0,15.0,23,0.00,,,0.00,Wunderground PWS Mod,2013-10-09 19:41:00,
2013-10-09 13:47:00,60.7,23.7,29.74,SSE,165,7.0,17.0,24,0.00,,,0.00,Wunderground PWS Mod,2013-10-09 19:47:00,
2013-10-09 13:52:00,60.2,23.2,29.74,SE,139,3.0,13.0,24,0.00,,,0.00,Wunderground PWS Mod,2013-10-09 19:52:00,
2013-10-09 13:57:00,60.5,24.5,29.74,SSE,148,4.0,17.0,25,0.00,,,0.00,Wunderground PWS Mod,2013-10-09 19:57:00,
2013-10-09 14:02:00,60.9,23.8,29.74,SE,135,7.0,12.0,24,0.00,,,0.00,Wunderground PWS Mod,2013-10-09 20:02:00,
2013-10-09 14:07:00,60.7,23.7,29.74,SE,143,4.0,13.0,24,0.00,,,0.00,Wunderground PWS Mod,2013-10-09 20:07:00,
2013-10-09 14:12:00,60.7,22.6,29.74,SE,145,4.0,16.0,23,0.00,,,0.00,Wunderground PWS Mod,2013-10-09 20:12:00,
2013-10-09 14:17:00,62.0,22.7,29.70,SSE,167,11.0,13.0,22,0.00,,,0.00,Wunderground PWS Mod,2013-10-09 20:17:00,
2013-10-09 14:22:00,62.3,24.0,29.70,SSW,207,7.0,12.0,23,0.00,,,0.00,Wunderground PWS Mod,2013-10-09 20:22:00,
2013-10-09 14:27:00,62.7,23.3,29.70,SSE,159,6.0,13.0,22,0.00,,,0.00,Wunderground PWS Mod,2013-10-09 20:27:00,
2013-10-09 14:32:00,62.4,26.1,29.69,South,172,9.0,19.0,25,0.00,,,0.00,Wunderground PWS Mod,2013-10-09 20:32:00,
2013-10-09 14:37:00,62.4,23.0,29.69,SSE,148,5.0,15.0,22,0.00,,,0.00,Wunderground PWS Mod,2013-10-09 20:37:00,
2013-10-09 14:42:00,62.7,23.3,29.69,SSE,148,9.0,17.0,22,0.00,,,0.00,Wunderground PWS Mod,2013-10-09 20:42:00,
2013-10-09 14:47:00,62.7,23.3,29.69,South,184,2.0,15.0,22,0.00,,,0.00,Wunderground PWS Mod,2013-10-09 20:47:00,
2013-10-09 14:52:00,62.7,21.0,29.69,ESE,111,10.0,13.0,20,0.00,,,0.00,Wunderground PWS Mod,2013-10-09 20:52:00,
2013-10-09 14:57:00,62.6,20.9,29.69,SE,133,10.0,12.0,20,0.00,,,0.00,Wunderground PWS Mod,2013-10-09 20:57:00,
2013-10-09 15:02:00,61.8,20.3,29.69,ESE,123,9.0,14.0,20,0.00,,,0.00,Wunderground PWS Mod,2013-10-09 21:02:00,
2013-10-09 15:07:00,60.7,19.3,29.69,SSE,148,9.0,13.0,20,0.00,,,0.00,Wunderground PWS Mod,2013-10-09 21:07:00,
2013-10-09 15:12:00,60.5,21.4,29.69,SSW,209,11.0,15.0,22,0.00,,,0.00,Wunderground PWS Mod,2013-10-09 21:12:00,
2013-10-09 15:17:00,60.5,21.4,29.70,SSE,158,8.0,9.0,22,0.00,,,0.00,Wunderground PWS Mod,2013-10-09 21:17:00,
2013-10-09 15:22:00,61.0,21.8,29.70,SSE,153,11.0,21.0,22,0.00,,,0.00,Wunderground PWS Mod,2013-10-09 21:22:00,
2013-10-09 15:27:00,61.3,23.1,29.70,SE,127,2.0,10.0,23,0.00,,,0.00,Wunderground PWS Mod,2013-10-09 21:27:00,
2013-10-09 15:32:00,61.5,22.3,29.69,SSW,200,6.0,16.0,22,0.00,,,0.00,Wunderground PWS Mod,2013-10-09 21:32:00,
2013-10-09 15:37:00,61.2,23.1,29.69,SSE,150,6.0,10.0,23,0.00,,,0.00,Wunderground PWS Mod,2013-10-09 21:37:00,
2013-10-09 15:42:00,61.0,21.8,29.69,SE,145,9.0,14.0,22,0.00,,,0.00,Wunderground PWS Mod,2013-10-09 21:42:00,
2013-10-09 15:47:00,61.0,21.8,29.70,South,174,9.0,12.0,22,0.00,,,0.00,Wunderground PWS Mod,2013-10-09 21:47:00,
2013-10-09 15:52:00,60.7,21.6,29.70,SE,128,2.0,9.0,22,0.00,,,0.00,Wunderground PWS Mod,2013-10-09 21:52:00,
2013-10-09 15:57:00,60.7,20.5,29.70,SSE,155,8.0,12.0,21,0.00,,,0.00,Wunderground PWS Mod,2013-10-09 21:57:00,
2013-10-09 16:02:00,60.7,19.3,29.70,SE,138,5.0,14.0,20,0.00,,,0.00,Wunderground PWS Mod,2013-10-09 22:02:00,
2013-10-09 16:07:00,60.9,19.5,29.70,SE,141,10.0,11.0,20,0.00,,,0.00,Wunderground PWS Mod,2013-10-09 22:07:00,
2013-10-09 16:12:00,60.9,19.5,29.70,SSE,151,5.0,17.0,20,0.00,,,0.00,Wunderground PWS Mod,2013-10-09 22:12:00,
2013-10-09 16:17:00,60.9,20.7,29.68,SSW,193,6.0,11.0,21,0.00,,,0.00,Wunderground PWS Mod,2013-10-09 22:17:00,
2013-10-09 16:22:00,60.9,19.5,29.68,SW,215,9.0,11.0,20,0.00,,,0.00,Wunderground PWS Mod,2013-10-09 22:22:00,
2013-10-09 16:27:00,60.9,20.7,29.68,South,176,10.0,12.0,21,0.00,,,0.00,Wunderground PWS Mod,2013-10-09 22:27:00,
2013-10-09 16:32:00,60.9,19.5,29.68,SSE,167,9.0,17.0,20,0.00,,,0.00,Wunderground PWS Mod,2013-10-09 22:32:00,
2013-10-09 16:37:00,60.7,20.5,29.68,SSE,148,6.0,15.0,21,0.00,,,0.00,Wunderground PWS Mod,2013-10-09 22:37:00,
2013-10-09 16:42:00,60.4,20.2,29.68,South,184,7.0,17.0,21,0.00,,,0.00,Wunderground PWS Mod,2013-10-09 22:42:00,
2013-10-09 16:47:00,60.2,20.1,29.69,SSW,209,5.0,17.0,21,0.00,,,0.00,Wunderground PWS Mod,2013-10-09 22:47:00,
2013-10-09 16:52:00,59.9,20.9,29.69,SSE,148,7.0,15.0,22,0.00,,,0.00,Wunderground PWS Mod,2013-10-09 22:52:00,
2013-10-09 16:57:00,59.9,20.9,29.69,SSE,167,8.0,15.0,22,0.00,,,0.00,Wunderground PWS Mod,2013-10-09 22:57:00,
2013-10-09 17:02:00,59.9,20.9,29.68,SSE,147,4.0,23.0,22,0.00,,,0.00,Wunderground PWS Mod,2013-10-09 23:02:00,
2013-10-09 17:07:00,60.4,21.3,29.68,SSE,155,2.0,14.0,22,0.00,,,0.00,Wunderground PWS Mod,2013-10-09 23:07:00,
2013-10-09 17:12:00,60.9,21.8,29.68,SE,133,5.0,12.0,22,0.00,,,0.00,Wunderground PWS Mod,2013-10-09 23:12:00,
2013-10-09 17:17:00,60.4,22.4,29.68,SSE,149,3.0,9.0,23,0.00,,,0.00,Wunderground PWS Mod,2013-10-09 23:17:00,
2013-10-09 17:22:00,59.6,20.7,29.68,South,184,5.0,13.0,22,0.00,,,0.00,Wunderground PWS Mod,2013-10-09 23:22:00,
2013-10-09 17:27:00,59.3,22.5,29.68,SSE,149,6.0,16.0,24,0.00,,,0.00,Wunderground PWS Mod,2013-10-09 23:27:00,
2013-10-09 17:32:00,58.6,22.8,29.69,South,170,9.0,16.0,25,0.00,,,0.00,Wunderground PWS Mod,2013-10-09 23:32:00,
2013-10-09 17:37:00,58.1,23.3,29.69,WNW,301,9.0,13.0,26,0.00,,,0.00,Wunderground PWS Mod,2013-10-09 23:37:00,
2013-10-09 17:42:00,58.1,22.4,29.69,SE,145,9.0,12.0,25,0.00,,,0.00,Wunderground PWS Mod,2013-10-09 23:42:00,
2013-10-09 17:47:00,58.0,22.3,29.68,SSE,155,4.0,11.0,25,0.00,,,0.00,Wunderground PWS Mod,2013-10-09 23:47:00,
2013-10-09 17:52:00,57.8,22.2,29.68,SSE,150,4.0,11.0,25,0.00,,,0.00,Wunderground PWS Mod,2013-10-09 23:52:00,
2013-10-09 17:57:00,58.0,21.4,29.68,SSE,160,4.0,10.0,24,0.00,,,0.00,Wunderground PWS Mod,2013-10-09 23:57:00,
2013-10-09 17:59:00,57.8,22.2,29.68,SSE,158,4.0,6.0,25,0.00,,,0.00,Wunderground PWS Mod,2013-10-09 23:59:00,
2013-10-09 18:03:00,57.6,22.0,29.68,SSE,150,3.0,6.0,25,0.00,,,0.00,Wunderground PWS Mod,2013-10-10 00:03:00,
2013-10-09 18:08:00,57.5,21.9,29.68,SSE,162,3.0,6.0,25,0.00,,,0.00,Wunderground PWS Mod,2013-10-10 00:08:00,
2013-10-09 18:13:00,57.3,21.7,29.68,ESE,117,3.0,6.0,25,0.00,,,0.00,Wunderground PWS Mod,2013-10-10 00:13:00,
2013-10-09 18:18:00,57.2,21.6,29.69,SSE,163,4.0,9.0,25,0.00,,,0.00,Wunderground PWS Mod,2013-10-10 00:18:00,
2013-10-09 18:23:00,56.9,22.3,29.69,SSE,157,3.0,6.0,26,0.00,,,0.00,Wunderground PWS Mod,2013-10-10 00:23:00,
2013-10-09 18:30:00,56.7,21.2,29.69,SE,146,5.0,5.0,25,0.00,,,0.00,Wunderground PWS Mod,2013-10-10 00:30:00,
2013-10-09 18:35:00,57.3,19.8,29.69,SE,130,7.0,14.0,23,0.00,,,0.00,Wunderground PWS Mod,2013-10-10 00:35:00,
2013-10-09 18:40:00,58.1,20.4,29.69,SE,136,3.0,7.0,23,0.00,,,0.00,Wunderground PWS Mod,2013-10-10 00:40:00,
2013-10-09 18:45:00,58.1,20.4,29.69,SE,145,6.0,6.0,23,0.00,,,0.00,Wunderground PWS Mod,2013-10-10 00:45:00,
2013-10-09 18:50:00,58.3,19.6,29.68,SSE,152,5.0,8.0,22,0.00,,,0.00,Wunderground PWS Mod,2013-10-10 00:50:00,
2013-10-09 18:55:00,58.6,18.7,29.68,South,174,5.0,10.0,21,0.00,,,0.00,Wunderground PWS Mod,2013-10-10 00:55:00,
2013-10-09 19:00:00,58.4,18.6,29.68,SSE,155,5.0,7.0,21,0.00,,,0.00,Wunderground PWS Mod,2013-10-10 01:00:00,
2013-10-09 19:05:00,58.4,18.6,29.68,South,184,5.0,10.0,21,0.00,,,0.00,Wunderground PWS Mod,2013-10-10 01:05:00,
2013-10-09 19:10:00,58.4,19.7,29.68,SE,143,3.0,9.0,22,0.00,,,0.00,Wunderground PWS Mod,2013-10-10 01:10:00,
2013-10-09 19:15:00,58.3,19.6,29.68,SSE,162,9.0,9.0,22,0.00,,,0.00,Wunderground PWS Mod,2013-10-10 01:15:00,
2013-10-09 19:20:00,58.1,19.4,29.68,South,169,5.0,9.0,22,0.00,,,0.00,Wunderground PWS Mod,2013-10-10 01:20:00,
2013-10-09 19:25:00,58.1,19.4,29.68,South,184,11.0,11.0,22,0.00,,,0.00,Wunderground PWS Mod,2013-10-10 01:25:00,
2013-10-09 19:30:00,58.1,18.3,29.68,SSE,158,7.0,11.0,21,0.00,,,0.00,Wunderground PWS Mod,2013-10-10 01:30:00,
2013-10-09 19:35:00,58.1,18.3,29.68,SSE,165,5.0,9.0,21,0.00,,,0.00,Wunderground PWS Mod,2013-10-10 01:35:00,
2013-10-09 19:40:00,58.1,18.3,29.68,SSE,166,4.0,9.0,21,0.00,,,0.00,Wunderground PWS Mod,2013-10-10 01:40:00,
2013-10-09 19:45:00,58.1,18.3,29.68,SSE,150,4.0,9.0,21,0.00,,,0.00,Wunderground PWS Mod,2013-10-10 01:45:00,
2013-10-09 19:50:00,58.0,18.2,29.68,SSE,153,5.0,10.0,21,0.00,,,0.00,Wunderground PWS Mod,2013-10-10 01:50:00,
2013-10-09 19:56:00,57.6,19.0,29.68,SSE,150,6.0,8.0,22,0.00,,,0.00,Wunderground PWS Mod,2013-10-10 01:56:00,
2013-10-09 20:01:00,57.3,19.8,29.68,South,186,5.0,7.0,23,0.00,,,0.00,Wunderground PWS Mod,2013-10-10 02:01:00,
2013-10-09 20:06:00,57.2,20.7,29.70,SSE,160,3.0,5.0,24,0.00,,,0.00,Wunderground PWS Mod,2013-10-10 02:06:00,
2013-10-09 20:11:00,57.0,21.5,29.70,South,185,7.0,9.0,25,0.00,,,0.00,Wunderground PWS Mod,2013-10-10 02:11:00,
2013-10-09 20:16:00,57.0,21.5,29.70,SE,135,7.0,14.0,25,0.00,,,0.00,Wunderground PWS Mod,2013-10-10 02:16:00,
2013-10-09 20:21:00,57.8,20.2,29.67,SE,145,3.0,12.0,23,0.00,,,0.00,Wunderground PWS Mod,2013-10-10 02:21:00,
2013-10-09 20:26:00,58.3,20.6,29.67,SE,144,5.0,6.0,23,0.00,,,0.00,Wunderground PWS Mod,2013-10-10 02:26:00,
2013-10-09 20:31:00,58.3,20.6,29.67,South,181,4.0,6.0,23,0.00,,,0.00,Wunderground PWS Mod,2013-10-10 02:31:00,
2013-10-09 20:35:00,58.3,20.6,29.67,South,190,12.0,14.0,23,0.00,,,0.00,Wunderground PWS Mod,2013-10-10 02:35:00,
2013-10-09 20:40:00,58.1,24.3,29.67,SSW,211,5.0,17.0,27,0.00,,,0.00,Wunderground PWS Mod,2013-10-10 02:40:00,
2013-10-09 20:45:00,57.0,25.0,29.67,SSW,193,11.0,15.0,29,0.00,,,0.00,Wunderground PWS Mod,2013-10-10 02:45:00,
2013-10-09 20:50:00,56.3,26.0,29.69,SSE,165,4.0,7.0,31,0.00,,,0.00,Wunderground PWS Mod,2013-10-10 02:50:00,
2013-10-09 20:56:00,56.0,27.3,29.69,SSW,198,3.0,11.0,33,0.00,,,0.00,Wunderground PWS Mod,2013-10-10 02:56:00,
2013-10-09 21:01:00,55.7,27.0,29.71,WSW,240,5.0,5.0,33,0.00,,,0.00,Wunderground PWS Mod,2013-10-10 03:01:00,
2013-10-09 21:06:00,55.6,28.4,29.71,WSW,248,2.0,5.0,35,0.00,,,0.00,Wunderground PWS Mod,2013-10-10 03:06:00,
2013-10-09 21:11:00,55.3,28.1,29.71,South,183,1.0,4.0,35,0.00,,,0.00,Wunderground PWS Mod,2013-10-10 03:11:00,
2013-10-09 21:16:00,55.0,27.8,29.68,WSW,245,2.0,3.0,35,0.00,,,0.00,Wunderground PWS Mod,2013-10-10 03:16:00,
2013-10-09 21:21:00,54.8,27.6,29.68,SSW,194,3.0,9.0,35,0.00,,,0.00,Wunderground PWS Mod,2013-10-10 03:21:00,
2013-10-09 21:26:00,55.0,27.8,29.68,SSE,161,3.0,3.0,35,0.00,,,0.00,Wunderground PWS Mod,2013-10-10 03:26:00,
2013-10-09 21:31:00,54.2,27.8,29.69,SSE,147,1.0,3.0,36,0.00,,,0.00,Wunderground PWS Mod,2013-10-10 03:31:00,
2013-10-09 21:36:00,54.5,26.7,29.69,SE,142,5.0,7.0,34,0.00,,,0.00,Wunderground PWS Mod,2013-10-10 03:36:00,
2013-10-09 21:41:00,55.1,26.5,29.69,East,87,1.0,3.0,33,0.00,,,0.00,Wunderground PWS Mod,2013-10-10 03:41:00,
2013-10-09 21:46:00,55.1,26.5,29.68,ESE,117,2.0,5.0,33,0.00,,,0.00,Wunderground PWS Mod,2013-10-10 03:46:00,
2013-10-09 21:51:00,54.8,27.6,29.68,ESE,117,1.0,2.0,35,0.00,,,0.00,Wunderground PWS Mod,2013-10-10 03:51:00,
2013-10-09 21:56:00,54.5,27.4,29.68,SSE,152,1.0,2.0,35,0.00,,,0.00,Wunderground PWS Mod,2013-10-10 03:56:00,
2013-10-09 22:01:00,54.4,28.0,29.68,SSE,152,1.0,1.0,36,0.00,,,0.00,Wunderground PWS Mod,2013-10-10 04:01:00,
2013-10-09 22:06:00,54.1,27.7,29.68,South,185,3.0,4.0,36,0.00,,,0.00,Wunderground PWS Mod,2013-10-10 04:06:00,
2013-10-09 22:11:00,53.9,28.2,29.68,West,263,3.0,6.0,37,0.00,,,0.00,Wunderground PWS Mod,2013-10-10 04:11:00,
2013-10-09 22:16:00,53.8,28.1,29.67,WSW,250,2.0,3.0,37,0.00,,,0.00,Wunderground PWS Mod,2013-10-10 04:16:00,
2013-10-09 22:21:00,53.6,27.9,29.67,South,189,1.0,3.0,37,0.00,,,0.00,Wunderground PWS Mod,2013-10-10 04:21:00,
2013-10-09 22:26:00,53.6,28.6,29.67,South,186,0.0,1.0,38,0.00,,,0.00,Wunderground PWS Mod,2013-10-10 04:26:00,
2013-10-09 22:31:00,53.2,28.9,29.66,South,186,0.0,1.0,39,0.00,,,0.00,Wunderground PWS Mod,2013-10-10 04:31:00,
2013-10-09 22:36:00,52.9,29.2,29.66,South,185,0.0,1.0,40,0.00,,,0.00,Wunderground PWS Mod,2013-10-10 04:36:00,
2013-10-09 22:41:00,52.6,33.5,29.66,South,185,1.0,2.0,48,0.00,,,0.00,Wunderground PWS Mod,2013-10-10 04:41:00,
2013-10-09 22:46:00,51.4,33.9,29.67,South,185,0.0,1.0,51,0.00,,,0.00,Wunderground PWS Mod,2013-10-10 04:46:00,
2013-10-09 22:51:00,50.4,34.4,29.67,South,180,1.0,2.0,54,0.00,,,0.00,Wunderground PWS Mod,2013-10-10 04:51:00,
2013-10-09 22:56:00,50.4,34.4,29.67,SSE,154,1.0,2.0,54,0.00,,,0.00,Wunderground PWS Mod,2013-10-10 04:56:00,
2013-10-09 23:01:00,50.7,34.2,29.69,SSE,153,2.0,3.0,53,0.00,,,0.00,Wunderground PWS Mod,2013-10-10 05:01:00,
2013-10-09 23:06:00,50.8,34.7,29.69,SSE,151,2.0,3.0,54,0.00,,,0.00,Wunderground PWS Mod,2013-10-10 05:06:00,
2013-10-09 23:11:00,51.1,34.5,29.69,SSE,153,0.0,2.0,53,0.00,,,0.00,Wunderground PWS Mod,2013-10-10 05:11:00,
2013-10-09 23:16:00,51.1,35.0,29.67,SE,129,1.0,3.0,54,0.00,,,0.00,Wunderground PWS Mod,2013-10-10 05:16:00,
2013-10-09 23:21:00,51.1,35.5,29.67,SE,132,1.0,4.0,55,0.00,,,0.00,Wunderground PWS Mod,2013-10-10 05:21:00,
2013-10-09 23:26:00,51.1,35.5,29.67,East,85,3.0,3.0,55,0.00,,,0.00,Wunderground PWS Mod,2013-10-10 05:26:00,
2013-10-09 23:31:00,51.1,35.9,29.65,ESE,116,2.0,3.0,56,0.00,,,0.00,Wunderground PWS Mod,2013-10-10 05:31:00,
2013-10-09 23:36:00,51.1,35.9,29.65,SE,145,0.0,2.0,56,0.00,,,0.00,Wunderground PWS Mod,2013-10-10 05:36:00,
2013-10-09 23:41:00,51.3,35.7,29.65,SE,125,1.0,3.0,55,0.00,,,0.00,Wunderground PWS Mod,2013-10-10 05:41:00,
2013-10-09 23:46:00,51.7,36.0,29.65,SE,124,2.0,4.0,55,0.00,,,0.00,Wunderground PWS Mod,2013-10-10 05:46:00,
2013-10-09 23:51:00,52.0,35.4,29.65,SSE,164,2.0,3.0,53,0.00,,,0.00,Wunderground PWS Mod,2013-10-10 05:51:00,
2013-10-09 23:56:00,52.0,35.4,29.65,SSE,150,9.0,9.0,53,0.00,,,0.00,Wunderground PWS Mod,2013-10-10 05:56:00,